This is the latest recevied weather packets stored in our database for station/object W0AKY-13. If no packets are shown the sender has not sent any weather packets the latest 10 day(s).
| Time | Temp. | Humidity | Pressure | Rain* | Wind** | Luminosity | Snow |
|---|---|---|---|---|---|---|---|
| 1777609594 | 4.44° C | 86% | 1021.2 hPa | 0 mm | - | 0 W/m² | - |
| 1777609292 | 4.44° C | 86% | 1021.4 hPa | 0 mm | - | 0 W/m² | - |
| 1777608989 | 4.44° C | 86% | 1021.2 hPa | 0 mm | - | 0 W/m² | - |
| 1777608686 | 5° C | 86% | 1021.2 hPa | 0 mm | - | 0 W/m² | - |
| 1777608384 | 5° C | 85% | 1020.9 hPa | 0 mm | - | 0 W/m² | - |
| 1777608082 | 4.44° C | 83% | 1021.1 hPa | 0 mm | - | 0 W/m² | - |
| 1777607777 | 4.44° C | 82% | 1021.1 hPa | 0 mm | - | 0 W/m² | - |
| 1777607474 | 5° C | 83% | 1021 hPa | 0 mm | - | 0 W/m² | - |
| 1777607170 | 5° C | 83% | 1021.1 hPa | 0 mm | - | 0 W/m² | - |
| 1777606866 | 5° C | 82% | 1021.1 hPa | 0 mm | - | 0 W/m² | - |
| 1777606561 | 5° C | 82% | 1021.5 hPa | 0 mm | - | 0 W/m² | - |
| 1777606256 | 5.56° C | 81% | 1021.1 hPa | 0 mm | - | 0 W/m² | - |
| 1777605952 | 5.56° C | 81% | 1021.1 hPa | 0 mm | - | 0 W/m² | - |
| 1777605648 | 5.56° C | 80% | 1021.4 hPa | 0 mm | - | 0 W/m² | - |
| 1777605347 | 6.11° C | 80% | 1021 hPa | 0 mm | - | 0 W/m² | - |
| 1777605044 | 6.11° C | 78% | 1021.1 hPa | 0 mm | - | 0 W/m² | - |
| 1777604740 | 6.11° C | 78% | 1021.2 hPa | 0 mm | - | 0 W/m² | - |
| 1777604437 | 6.11° C | 79% | 1021.1 hPa | 0 mm | - | 0 W/m² | - |
| 1777604132 | 6.67° C | 76% | 1021 hPa | 0 mm | - | 0 W/m² | - |
| 1777603829 | 6.67° C | 74% | 1021 hPa | 0 mm | - | 0 W/m² | - |
| 1777603525 | 6.67° C | 74% | 1020.9 hPa | 0 mm | - | 0 W/m² | - |
| 1777603221 | 7.22° C | 74% | 1020.9 hPa | 0 mm | - | 0 W/m² | - |
| 1777602917 | 7.22° C | 72% | 1020.9 hPa | 0 mm | - | 0 W/m² | - |
| 1777602613 | 7.22° C | 71% | 1020.7 hPa | 0 mm | - | 0 W/m² | - |
| 1777602307 | 7.78° C | 69% | 1020.9 hPa | 0 mm | - | 0 W/m² | - |
* Rain latest hour (hover to see other rain measurements)
** Current wind speed in m/s (hover to see current wind gust speed)